{"data":{"norad_id":56792,"intl_designator":"2023-078AB","name":"STARLINK-6046","alt_names":[],"object_type":"PAYLOAD","status":"ACTIVE","operator":null,"country":"US","launch_date":"2023-05-31","launch_site_code":"AFWTR","launch_vehicle":null,"mission":null,"orbit_class":"UNKNOWN","rcs_meters":null,"size_class":null,"mass_kg":null,"dimensions":null,"purposes":["comms"],"wikipedia_slug":null,"has_3d_model":false,"image_url":null,"decayed_at":null,"tle_current":{"epoch":"2026-09-20T06:37:30.767520Z","epoch_age_seconds":134284,"freshness":"FRESH","line1":"1 56792U 23078AB  26263.27605055  .00000237  00000+0  27678-4 0  9993","line2":"2 56792  69.9995 213.9836 0002811 272.2108  87.8729 14.98330839181823","mean_motion":14.98330839,"eccentricity":0.0002811,"inclination_deg":69.9995,"raan_deg":213.9836,"arg_perigee_deg":272.2108,"mean_anomaly_deg":87.8729,"bstar":2.7678e-5,"rev_number":18182,"period_min":96.10694530996,"perigee_km":570.09959791502,"apogee_km":574.00699489966,"semimajor_km":6950.1902964073,"source":"CELESTRAK","updated_at":"2026-09-21T09:00:33.508165Z"}}}